Regional Weather Roundup
Issued by NWS Charleston, SC

Current Version | Previous Version | Text Only | Print | Product List | Glossary On
Versions: 1 2 3 4 5 6 7 8 9 10 11 12 13 14 15 16 17 18 19 20 21 22 23 24 25 26 27 28 29 30 31 32 33 34 35 36 37 38 39 40 41 42 43 44 45 46 47 48 49 50
000
ASUS42 KCHS 052012
RWRCHS

REGIONAL WEATHER ROUNDUP
NATIONAL WEATHER SERVICE CHARLESTON SC
400 PM EDT SUN JUL 05 2015

NOTE: "FAIR" INDICATES FEW OR NO CLOUDS BELOW 12,000 FEET WITH NO
SIGNIFICANT WEATHER AND/OR OBSTRUCTIONS TO VISIBILITY.

NOT ALL STATIONS ARE QUALITY CONTROLLED BY THE NATIONAL
WEATHER SERVICE. USE DATA WITH CAUTION...ESPECIALLY
DEWPOINT OBSERVATIONS.

SCZ027-030-031-034>040-042>050-052100-
...SOUTHEAST SOUTH CAROLINA...

CITY           SKY/WX    TMP DP  RH WIND       PRES   REMARKS
N CHARLESTON   PTSUNNY   85  72  65 S12       30.12R HX  91
WATERFRONT PAR   N/A     83  77  81 S15       30.09F HX  92
MOUNT PLEASANT FAIR      84  75  74 S9G18     30.13S HX  92
JOHNS ISLAND   MOCLDY    86  77  74 S14       30.13S HX  97
PINOPOLIS      NOT AVBL
MONCKS CORNER  TSTM      75  70  83 W7G16     30.14R
SUMMERVILLE    NOT AVBL
BEAUFORT MCAS  PTSUNNY   78  75  90 S3        30.10F
BEAUFORT ARPT  FAIR      82  73  74 W5        30.10F
HILTON HEAD IS PTSUNNY   82  73  74 CALM      30.12F
WALTERBORO     CLOUDY    79  73  83 E7        30.12S
ALLENDALE      MOCLDY    86  72  62 SE8       30.08F HX  92

...SOUTHERN MIDLANDS AND PEE DEE...

CITY           SKY/WX    TMP DP  RH WIND       PRES   REMARKS
GEORGETOWN     NOT AVBL
KINGSTREE      NOT AVBL
ORANGEBURG     HVY RAIN  80  71  74 S18       30.10S
BARNWELL       FAIR      91  70  49 SW10      30.08F HX  97
AIKEN          NOT AVBL
MANNING        MOCLDY    79  64  61 S15G26    30.13R
COLUMBIA       PTSUNNY   90  66  45 S10       30.06F HX  92
SUMTER         MOSUNNY   92  69  46 S9        30.06F HX  96
FLORENCE       SUNNY     93  67  42 SW13      30.07F HX  96
MYRTLE BEACH   MOSUNNY   88  73  62 S17G25    30.11F HX  96
N MYRTLE BEACH SUNNY     84  76  76 S15       30.11F HX  93

$$

GAZ063-065-086>088-099>101-113>116-118-119-134>141-150-052100-
...SOUTHEAST GEORGIA...

CITY           SKY/WX    TMP DP  RH WIND       PRES   REMARKS
SAVANNAH ARPT  TSTM      73  70  88 N15G21    30.11S
HUNTER AAF     PTSUNNY   79  77  94 NE9       30.08F THUNDER
FORT STEWART   DRIZZLE   75  72  88 W18       30.08S
STATESBORO     NOT AVBL
SYLVANIA       PTCLDY    90  71  53 SW7       30.10F HX  96
CLAXTON        TSTM      77  72  83 W22G29    30.15R VSB 1

...CSRA...CENTRAL AND FAR SOUTHEAST GEORGIA...

CITY           SKY/WX    TMP DP  RH WIND       PRES   REMARKS
THOMSON        PTSUNNY   85  72  65 W9        30.13F HX  91
AUGUSTA-BUSH   MOSUNNY   89  67  47 SW10      30.06F HX  92
AUGUSTA-DANIEL MOSUNNY   87  69  54 SW9       30.09F HX  91
SWAINSBORO     TSTM     N/A N/A N/A CALM      30.14R
VIDALIA        RAIN      75  72  88 SW7       30.15S
EASTMAN        FAIR      78  71  79 SW5       30.16F
HAZLEHURST     FAIR      74  74 100 CALM      30.15F
ALMA           CLOUDY    73  71  93 CALM      30.15F
WAYCROSS       CLOUDY    76  75  96 W5          N/A  THUNDER
JESUP          FAIR      82  72  69 NW15G24   30.11F
BAXLEY         RAIN      73  72  94 CALM      30.15F
BRUNSWICK      PTSUNNY   86  73  66 S10G16    30.13R THUNDER HX  93
SAINT SIMONS   MOSUNNY   82  72  71 SE12G20   30.12S

$$

SCZ027-028-034-036>038-045-046-048>050-GAZ119-141-052100-
...LAKE AND SUPPLEMENTAL COASTAL OBSERVATIONS...

STATION/POSITION TIME  TEMP    WIND        PRES    WAVE   SWELL
                       AIR SEA DIR/SP/G            HT/PER HT/PER/DIR
                 (UTC) (F)     (DEG/KT/KT) (MB)    (FT/S) (FT/S/D)
UPR LAKE MARION  NOT AVBL
WINYAH BAY       NOT AVBL
LAKE MURRAY      1900   78     230/  7/ 27 1018.3F
ACE BASIN NERRS  NOT AVBL
FORT PULASKI     1900   85 84  140/  6/ 11 1020.6F
SAPELO ISLAND    1900   89     130/ 10     1020.0S

$$

ANZ835-935-AMZ111-154-330-350-352-354-370-450-454-472-052100-
...C-MAN AND BUOY OBSERVATIONS...

STATION/POSITION TIME  TEMP    WIND        PRES    WAVE   SWELL
                       AIR SEA DIR/SP/G            HT/PER HT/PER/DIR
                 (UTC) (F)     (DEG/KT/KT) (MB)    (FT/S) (FT/S/D)
BUOY 41004       1950   81 83  180/ 16/ 17 1019.8F   3/ 9   2/ 9
BUOY 41008       1950   79 80  160/ 12/ 14 1019.7F   2/ 8   2/110/ 8
FOLLY BEACH CMAN 1900   81     170/ 13/ 15 1020.5F
CAPERS NEARSHORE 1908   82     190/ 14/ 17 1020.8F
FRIPP NEARSHORE  1900   82     170/ 14/ 16 1020.0F


STATION/POSITION TIME  TEMP    WIND        PRES    WAVE   SWELL
                       AIR SEA DIR/SP/G            HT/PER HT/PER/DIR
                 (UTC) (F)     (DEG/KT/KT) (MB)    (FT/S) (FT/S/D)
5E ST. MARYS GA  1921      79                N/A     2/10
FRYING PAN BUOY  1950   81 80  190/ 14/ 16 1020.6F   3/ 5   2/120/ 8
BUOY 41025       1950   81 82  210/ 14/ 16 1020.1F   3/ 4   2/150/ 8
CAPE LOOKOUT NC  1900   82     200/ 13/ 15 1020.4F
BUOY 41002       1950   80 80  190/ 10/ 12 1023.0F   4/ 9   3/140/ 9
BUOY 41010       1920   79 84   40/  4/  6 1022.6F
ST AUGUSTINE FL  2000   78 77  140/  9/  9 1020.7F


$$


USA.gov is the U.S. government's official web portal to all federal, state and local government web resources and services.